Location: Brompton
(51.4000°N, 0.5333°E)
Time: 09:31:50
(UTC+00:00)

Cosmos 864 Rocket - Pass Details

Date: 11 May 2021
Orbit: 952 x 992 km, 82.9° (Epoch: 13 June)

Event Time Altitude Azimuth Distance (km) Brightness Sun altitude
Rises 22:56:59 0° 349° (N) 3,660 9.2 -19.3°
Reaches altitude 10° 22:59:30 10° 349° (N) 2,705 8.1 -19.4°
Maximum altitude 23:05:42 83° 262° (W) 968 4.4 -19.7°
Enters shadow 23:08:31 35° 178° (S) 1,504 4.9 -19.7°
